Location: Misciano
(43.5000°N, 11.9500°E)
Time: 05:05:56
(UTC+00:00)

CENTAUR R/B - Pass Details

Date: 13 August 2020
Orbit: 754 x 1434 km, 63.5° (Epoch: 17 September)

Event Time Altitude Azimuth Distance (km) Brightness Sun altitude
Rises 20:37:29 0° 223° (SW) 3,383 5.3 -21.7°
Reaches altitude 10° 20:39:47 10° 226° (SW) 2,520 4.6 -21.9°
Maximum altitude 20:45:38 70° 309° (NW) 1,037 2.7 -22.6°
Drops below altitude 10° 20:52:38 10° 34° (NE) 2,994 5.2 -23.4°
Sets 20:55:36 0° 37° (NE) 4,065 5.9 -23.8°
